Time,TemperatureF,DewpointF,PressureIn,WindDirection,WindDirectionDegrees,WindSpeedMPH,WindSpeedGustMPH,Humidity,HourlyPrecipIn,Conditions,Clouds,dailyrainin,SoftwareType,DateUTC
2013-02-19 00:01:00,51.0,43.0,29.96,South,178,3.0,6.0,75,0.00,,,0.00,,2013-02-19 08:01:00,
2013-02-19 00:11:00,51.0,43.0,29.96,South,178,3.0,6.0,75,0.00,,,0.00,,2013-02-19 08:11:00,
2013-02-19 00:21:00,51.0,43.0,29.95,SE,140,3.0,7.0,73,0.00,,,0.00,,2013-02-19 08:21:00,
2013-02-19 00:31:00,51.0,42.0,29.95,SSE,167,4.0,8.0,72,0.00,,,0.00,,2013-02-19 08:31:00,
2013-02-19 00:41:00,51.0,42.0,29.95,SSE,167,4.0,8.0,72,0.00,,,0.00,,2013-02-19 08:41:00,
2013-02-19 00:52:00,51.0,43.0,29.96,South,180,4.0,8.0,73,0.00,,,0.00,,2013-02-19 08:52:00,
2013-02-19 01:01:00,51.0,42.0,29.96,South,184,4.0,9.0,71,0.00,,,0.00,,2013-02-19 09:01:00,
2013-02-19 01:11:00,51.0,42.0,29.96,South,184,4.0,9.0,71,0.00,,,0.00,,2013-02-19 09:11:00,
2013-02-19 01:21:00,50.0,41.0,29.95,SSE,150,3.0,6.0,71,0.00,,,0.00,,2013-02-19 09:21:00,
2013-02-19 01:31:00,50.0,41.0,29.95,SE,146,2.0,8.0,71,0.00,,,0.00,,2013-02-19 09:31:00,
2013-02-19 01:41:00,50.0,41.0,29.95,SE,146,2.0,8.0,71,0.00,,,0.00,,2013-02-19 09:41:00,
2013-02-19 01:53:00,50.0,41.0,29.95,SSE,151,1.0,3.0,71,0.00,,,0.00,,2013-02-19 09:53:00,
2013-02-19 02:01:00,50.0,41.0,29.95,SE,142,1.0,3.0,71,0.00,,,0.00,,2013-02-19 10:01:00,
2013-02-19 02:11:00,50.0,41.0,29.95,SE,142,1.0,3.0,71,0.00,,,0.00,,2013-02-19 10:11:00,
2013-02-19 02:21:00,50.0,41.0,29.94,SE,127,1.0,4.0,71,0.00,,,0.00,,2013-02-19 10:21:00,
2013-02-19 02:31:00,50.0,41.0,29.93,ESE,113,2.0,4.0,72,0.00,,,0.00,,2013-02-19 10:31:00,
2013-02-19 02:41:00,50.0,41.0,29.93,ESE,113,2.0,4.0,72,0.00,,,0.00,,2013-02-19 10:41:00,
2013-02-19 02:52:00,50.0,41.0,29.93,East,96,1.0,8.0,72,0.00,,,0.00,,2013-02-19 10:52:00,
2013-02-19 03:01:00,50.0,41.0,29.93,ESE,108,4.0,7.0,71,0.00,,,0.00,,2013-02-19 11:01:00,
2013-02-19 03:11:00,50.0,41.0,29.93,ESE,108,4.0,7.0,71,0.00,,,0.00,,2013-02-19 11:11:00,
2013-02-19 03:21:00,50.0,41.0,29.92,East,81,2.0,8.0,72,0.00,,,0.00,,2013-02-19 11:21:00,
2013-02-19 03:31:00,50.0,42.0,29.92,East,87,2.0,6.0,73,0.00,,,0.00,,2013-02-19 11:31:00,
2013-02-19 03:42:00,50.0,42.0,29.92,East,87,2.0,6.0,73,0.00,,,0.00,,2013-02-19 11:42:00,
2013-02-19 03:52:00,50.0,42.0,29.91,ENE,78,4.0,8.0,73,0.00,,,0.00,,2013-02-19 11:52:00,
2013-02-19 04:01:00,50.0,42.0,29.91,East,94,2.0,5.0,73,0.00,,,0.00,,2013-02-19 12:01:00,
2013-02-19 04:12:00,50.0,42.0,29.91,East,94,2.0,5.0,73,0.00,,,0.00,,2013-02-19 12:12:00,
2013-02-19 04:21:00,50.0,42.0,29.91,East,98,1.0,5.0,73,0.00,,,0.00,,2013-02-19 12:21:00,
2013-02-19 04:32:00,50.0,41.0,29.91,ESE,102,0.0,3.0,72,0.00,,,0.00,,2013-02-19 12:32:00,
2013-02-19 04:42:00,50.0,41.0,29.91,ESE,102,0.0,3.0,72,0.00,,,0.00,,2013-02-19 12:42:00,
2013-02-19 04:52:00,50.0,42.0,29.91,ESE,102,1.0,2.0,73,0.00,,,0.00,,2013-02-19 12:52:00,
2013-02-19 05:01:00,50.0,41.0,29.91,East,92,2.0,7.0,72,0.00,,,0.00,,2013-02-19 13:01:00,
2013-02-19 05:11:00,50.0,41.0,29.91,East,92,2.0,7.0,72,0.00,,,0.00,,2013-02-19 13:11:00,
2013-02-19 05:22:00,50.0,41.0,29.92,ESE,107,2.0,4.0,71,0.00,,,0.00,,2013-02-19 13:22:00,
2013-02-19 05:31:00,50.0,41.0,29.92,ESE,107,1.0,3.0,70,0.00,,,0.00,,2013-02-19 13:31:00,
2013-02-19 05:41:00,50.0,41.0,29.92,ESE,107,1.0,3.0,70,0.00,,,0.00,,2013-02-19 13:41:00,
2013-02-19 05:52:00,50.0,40.0,29.92,ESE,107,0.0,2.0,69,0.00,,,0.00,,2013-02-19 13:52:00,
2013-02-19 06:01:00,50.0,40.0,29.92,ENE,66,1.0,4.0,69,0.00,,,0.00,,2013-02-19 14:01:00,
2013-02-19 06:11:00,50.0,40.0,29.92,ENE,66,1.0,4.0,69,0.00,,,0.00,,2013-02-19 14:11:00,
2013-02-19 06:21:00,50.0,40.0,29.92,East,90,4.0,8.0,69,0.00,,,0.00,,2013-02-19 14:21:00,
2013-02-19 06:32:00,49.0,40.0,29.92,ESE,116,4.0,9.0,70,0.00,,,0.00,,2013-02-19 14:32:00,
2013-02-19 06:41:00,49.0,40.0,29.92,ESE,116,4.0,9.0,70,0.00,,,0.00,,2013-02-19 14:41:00,
2013-02-19 06:52:00,49.0,40.0,29.92,SE,134,4.0,8.0,70,0.00,,,0.00,,2013-02-19 14:52:00,
2013-02-19 07:01:00,49.0,40.0,29.91,East,101,4.0,9.0,71,0.00,,,0.00,,2013-02-19 15:01:00,
2013-02-19 07:11:00,49.0,40.0,29.91,East,101,4.0,9.0,71,0.00,,,0.00,,2013-02-19 15:11:00,
2013-02-19 07:21:00,49.0,40.0,29.92,SE,126,4.0,9.0,71,0.00,,,0.00,,2013-02-19 15:21:00,
2013-02-19 07:31:00,49.0,40.0,29.91,SE,130,8.0,14.0,71,0.00,,,0.00,,2013-02-19 15:31:00,
2013-02-19 07:41:00,49.0,40.0,29.91,SE,130,8.0,14.0,71,0.00,,,0.00,,2013-02-19 15:41:00,
2013-02-19 07:52:00,49.0,40.0,29.91,ESE,117,9.0,16.0,71,0.00,,,0.00,,2013-02-19 15:52:00,
2013-02-19 08:01:00,50.0,41.0,29.91,ESE,112,9.0,14.0,72,0.00,,,0.00,,2013-02-19 16:01:00,
2013-02-19 08:11:00,50.0,41.0,29.91,ESE,112,9.0,14.0,72,0.00,,,0.00,,2013-02-19 16:11:00,
2013-02-19 08:21:00,50.0,41.0,29.91,ESE,120,6.0,12.0,72,0.00,,,0.00,,2013-02-19 16:21:00,
2013-02-19 08:31:00,50.0,42.0,29.91,SE,133,6.0,13.0,73,0.00,,,0.00,,2013-02-19 16:31:00,
2013-02-19 08:41:00,50.0,42.0,29.91,SE,133,6.0,13.0,73,0.00,,,0.00,,2013-02-19 16:41:00,
2013-02-19 08:52:00,50.0,42.0,29.91,ESE,112,5.0,10.0,73,0.00,,,0.00,,2013-02-19 16:52:00,
2013-02-19 09:01:00,50.0,42.0,29.91,SE,146,4.0,9.0,73,0.00,,,0.00,,2013-02-19 17:01:00,
2013-02-19 09:11:00,50.0,42.0,29.91,SE,146,4.0,9.0,73,0.00,,,0.00,,2013-02-19 17:11:00,
2013-02-19 09:21:00,49.0,42.0,29.91,SE,129,3.0,9.0,77,0.00,,,0.00,,2013-02-19 17:21:00,
2013-02-19 09:31:00,49.0,43.0,29.92,ESE,123,2.0,5.0,80,0.00,,,0.00,,2013-02-19 17:31:00,
2013-02-19 09:41:00,49.0,43.0,29.92,ESE,123,2.0,5.0,80,0.00,,,0.00,,2013-02-19 17:41:00,
2013-02-19 09:52:00,49.0,44.0,29.91,SSE,155,2.0,5.0,82,0.00,,,0.00,,2013-02-19 17:52:00,
2013-02-19 10:01:00,48.0,43.0,29.91,SSE,148,3.0,6.0,84,0.00,,,0.00,,2013-02-19 18:01:00,
2013-02-19 10:11:00,48.0,43.0,29.91,SSE,148,3.0,6.0,84,0.00,,,0.00,,2013-02-19 18:11:00,
2013-02-19 10:21:00,48.0,44.0,29.91,SE,141,2.0,6.0,85,0.00,,,0.00,,2013-02-19 18:21:00,
2013-02-19 10:31:00,48.0,44.0,29.91,SSE,161,3.0,10.0,87,0.00,,,0.00,,2013-02-19 18:31:00,
2013-02-19 10:41:00,48.0,44.0,29.91,SSE,161,3.0,10.0,87,0.00,,,0.00,,2013-02-19 18:41:00,
2013-02-19 10:52:00,48.0,45.0,29.91,SSE,155,3.0,8.0,90,0.00,,,0.00,,2013-02-19 18:52:00,
2013-02-19 11:01:00,48.0,46.0,29.91,SE,144,6.0,10.0,92,0.00,,,0.00,,2013-02-19 19:01:00,
2013-02-19 11:11:00,48.0,46.0,29.91,SE,144,6.0,10.0,92,0.00,,,0.00,,2013-02-19 19:11:00,
2013-02-19 11:21:00,48.0,46.0,29.90,SE,125,5.0,10.0,93,0.00,,,0.00,,2013-02-19 19:21:00,
2013-02-19 11:31:00,48.0,46.0,29.90,SE,139,5.0,8.0,93,0.01,,,0.01,,2013-02-19 19:31:00,
2013-02-19 11:41:00,48.0,46.0,29.90,SE,139,5.0,8.0,93,0.01,,,0.01,,2013-02-19 19:41:00,
2013-02-19 11:52:00,48.0,46.0,29.89,ESE,123,5.0,7.0,94,0.02,,,0.02,,2013-02-19 19:52:00,
2013-02-19 12:01:00,48.0,46.0,29.89,SSE,167,2.0,6.0,94,0.05,,,0.05,,2013-02-19 20:01:00,
2013-02-19 12:11:00,48.0,46.0,29.89,SSE,167,2.0,6.0,94,0.05,,,0.05,,2013-02-19 20:11:00,
2013-02-19 12:21:00,49.0,48.0,29.88,SSE,161,2.0,6.0,95,0.06,,,0.06,,2013-02-19 20:21:00,
2013-02-19 12:31:00,49.0,48.0,29.88,SE,144,3.0,7.0,95,0.06,,,0.07,,2013-02-19 20:31:00,
2013-02-19 12:41:00,49.0,48.0,29.88,SE,144,3.0,7.0,95,0.06,,,0.07,,2013-02-19 20:41:00,
2013-02-19 12:52:00,48.0,47.0,29.87,SSE,147,3.0,6.0,95,0.05,,,0.07,,2013-02-19 20:52:00,
2013-02-19 13:01:00,49.0,48.0,29.85,SSE,157,1.0,5.0,95,0.04,,,0.09,,2013-02-19 21:01:00,
2013-02-19 13:11:00,49.0,48.0,29.85,SSE,157,1.0,5.0,95,0.04,,,0.09,,2013-02-19 21:11:00,
2013-02-19 13:21:00,50.0,49.0,29.85,SSW,193,3.0,7.0,95,0.04,,,0.10,,2013-02-19 21:21:00,
2013-02-19 13:31:00,51.0,49.0,29.84,SSE,161,3.0,10.0,93,0.03,,,0.10,,2013-02-19 21:31:00,
2013-02-19 13:42:00,51.0,49.0,29.84,SSE,161,3.0,10.0,93,0.03,,,0.10,,2013-02-19 21:42:00,
2013-02-19 13:52:00,51.0,48.0,29.84,South,176,2.0,9.0,91,0.03,,,0.10,,2013-02-19 21:52:00,
2013-02-19 14:01:00,51.0,48.0,29.83,South,182,2.0,7.0,90,0.01,,,0.10,,2013-02-19 22:01:00,
2013-02-19 14:11:00,51.0,48.0,29.83,South,182,2.0,7.0,90,0.01,,,0.10,,2013-02-19 22:11:00,
2013-02-19 14:21:00,52.0,49.0,29.83,South,190,3.0,9.0,88,0.00,,,0.10,,2013-02-19 22:21:00,
2013-02-19 14:31:00,52.0,48.0,29.82,South,175,6.0,9.0,87,0.00,,,0.10,,2013-02-19 22:31:00,
2013-02-19 14:41:00,52.0,48.0,29.82,South,175,6.0,9.0,87,0.00,,,0.10,,2013-02-19 22:41:00,
2013-02-19 14:52:00,52.0,48.0,29.82,South,186,4.0,7.0,86,0.00,,,0.10,,2013-02-19 22:52:00,
2013-02-19 15:01:00,52.0,47.0,29.82,WSW,251,4.0,10.0,83,0.00,,,0.10,,2013-02-19 23:01:00,
2013-02-19 15:11:00,52.0,47.0,29.82,WSW,251,4.0,10.0,83,0.00,,,0.10,,2013-02-19 23:11:00,
2013-02-19 15:21:00,53.0,47.0,29.81,West,262,4.0,12.0,79,0.00,,,0.10,,2013-02-19 23:21:00,
2013-02-19 15:31:00,51.0,47.0,29.81,WSW,254,4.0,10.0,85,0.00,,,0.10,,2013-02-19 23:31:00,
2013-02-19 15:41:00,51.0,47.0,29.81,WSW,254,4.0,10.0,85,0.00,,,0.10,,2013-02-19 23:41:00,
2013-02-19 15:52:00,52.0,48.0,29.80,SW,229,4.0,10.0,86,0.01,,,0.11,,2013-02-19 23:52:00,
2013-02-19 16:01:00,52.0,47.0,29.80,SW,224,5.0,9.0,83,0.01,,,0.11,,2013-02-20 00:01:00,
2013-02-19 16:11:00,52.0,47.0,29.80,SW,224,5.0,9.0,83,0.01,,,0.11,,2013-02-20 00:11:00,
2013-02-19 16:21:00,52.0,46.0,29.79,WSW,251,3.0,9.0,81,0.01,,,0.11,,2013-02-20 00:21:00,
2013-02-19 16:31:00,51.0,45.0,29.79,WNW,284,4.0,10.0,81,0.01,,,0.11,,2013-02-20 00:31:00,
2013-02-19 16:41:00,51.0,45.0,29.79,WNW,284,4.0,10.0,81,0.01,,,0.11,,2013-02-20 00:41:00,
2013-02-19 16:52:00,51.0,45.0,29.78,SW,223,3.0,8.0,80,0.00,,,0.11,,2013-02-20 00:52:00,
2013-02-19 17:02:00,51.0,45.0,29.78,SSW,208,4.0,9.0,80,0.00,,,0.11,,2013-02-20 01:02:00,
2013-02-19 17:11:00,51.0,45.0,29.78,SSW,208,4.0,9.0,80,0.00,,,0.11,,2013-02-20 01:11:00,
2013-02-19 17:21:00,50.0,44.0,29.78,SW,227,2.0,7.0,80,0.00,,,0.11,,2013-02-20 01:21:00,
2013-02-19 17:31:00,50.0,45.0,29.78,West,272,6.0,13.0,83,0.00,,,0.11,,2013-02-20 01:31:00,
2013-02-19 17:41:00,50.0,45.0,29.78,West,272,6.0,13.0,83,0.00,,,0.11,,2013-02-20 01:41:00,
2013-02-19 17:52:00,50.0,45.0,29.78,West,277,4.0,10.0,82,0.00,,,0.11,,2013-02-20 01:52:00,
2013-02-19 18:01:00,50.0,45.0,29.78,West,265,3.0,14.0,82,0.00,,,0.11,,2013-02-20 02:01:00,
2013-02-19 18:11:00,50.0,45.0,29.78,West,265,3.0,14.0,82,0.00,,,0.11,,2013-02-20 02:11:00,
2013-02-19 18:21:00,50.0,45.0,29.78,West,265,3.0,14.0,82,0.00,,,0.11,,2013-02-20 02:21:00,
2013-02-19 18:31:00,50.0,44.0,29.77,WSW,256,3.0,9.0,81,0.00,,,0.11,,2013-02-20 02:31:00,
2013-02-19 18:41:00,50.0,44.0,29.77,WSW,256,3.0,9.0,81,0.00,,,0.11,,2013-02-20 02:41:00,
2013-02-19 18:52:00,50.0,44.0,29.77,WSW,256,3.0,9.0,81,0.00,,,0.11,,2013-02-20 02:52:00,
2013-02-19 19:01:00,50.0,42.0,29.77,WSW,254,4.0,12.0,73,0.00,,,0.11,,2013-02-20 03:01:00,
2013-02-19 19:12:00,50.0,42.0,29.77,WSW,254,4.0,12.0,73,0.00,,,0.11,,2013-02-20 03:12:00,
2013-02-19 19:21:00,50.0,42.0,29.77,West,265,4.0,8.0,74,0.00,,,0.11,,2013-02-20 03:21:00,
2013-02-19 19:32:00,50.0,42.0,29.77,West,265,4.0,8.0,74,0.00,,,0.11,,2013-02-20 03:32:00,
2013-02-19 19:41:00,50.0,42.0,29.77,West,265,4.0,8.0,74,0.00,,,0.11,,2013-02-20 03:41:00,
2013-02-19 19:52:00,50.0,42.0,29.77,West,265,4.0,8.0,74,0.00,,,0.11,,2013-02-20 03:52:00,
2013-02-19 20:01:00,50.0,41.0,29.76,WSW,255,4.0,8.0,72,0.00,,,0.11,,2013-02-20 04:01:00,
2013-02-19 20:11:00,50.0,41.0,29.76,WSW,255,4.0,8.0,72,0.00,,,0.11,,2013-02-20 04:11:00,
2013-02-19 20:21:00,49.0,41.0,29.76,WSW,238,4.0,7.0,75,0.00,,,0.11,,2013-02-20 04:21:00,
2013-02-19 20:31:00,49.0,41.0,29.76,WSW,238,4.0,7.0,75,0.00,,,0.11,,2013-02-20 04:31:00,
2013-02-19 20:41:00,49.0,41.0,29.76,WSW,238,4.0,7.0,75,0.00,,,0.11,,2013-02-20 04:41:00,
2013-02-19 20:52:00,49.0,44.0,29.75,SW,226,8.0,16.0,84,0.00,,,0.11,,2013-02-20 04:52:00,
2013-02-19 21:01:00,48.0,44.0,29.75,South,170,6.0,10.0,86,0.00,,,0.11,,2013-02-20 05:01:00,
2013-02-19 21:12:00,48.0,44.0,29.75,South,170,6.0,10.0,86,0.00,,,0.11,,2013-02-20 05:12:00,
2013-02-19 21:22:00,48.0,45.0,29.74,NW,307,5.0,15.0,89,0.01,,,0.12,,2013-02-20 05:22:00,
2013-02-19 21:31:00,47.0,44.0,29.73,WNW,296,0.0,3.0,90,0.01,,,0.12,,2013-02-20 05:31:00,
2013-02-19 21:42:00,47.0,44.0,29.73,WNW,296,0.0,3.0,90,0.01,,,0.12,,2013-02-20 05:42:00,
2013-02-19 21:52:00,47.0,45.0,29.73,WNW,296,0.0,0.0,91,0.01,,,0.12,,2013-02-20 05:52:00,
2013-02-19 22:01:00,47.0,45.0,29.72,WSW,252,1.0,3.0,91,0.01,,,0.12,,2013-02-20 06:01:00,
2013-02-19 22:11:00,47.0,45.0,29.72,WSW,252,1.0,3.0,91,0.01,,,0.12,,2013-02-20 06:11:00,
2013-02-19 22:21:00,47.0,45.0,29.71,SSW,202,3.0,8.0,92,0.00,,,0.12,,2013-02-20 06:21:00,
2013-02-19 22:31:00,47.0,45.0,29.71,SW,225,6.0,13.0,93,0.05,,,0.17,,2013-02-20 06:31:00,
2013-02-19 22:42:00,47.0,45.0,29.71,SW,225,6.0,13.0,93,0.05,,,0.17,,2013-02-20 06:42:00,
2013-02-19 22:52:00,47.0,45.0,29.71,SW,229,4.0,9.0,94,0.07,,,0.19,,2013-02-20 06:52:00,
2013-02-19 23:01:00,46.0,44.0,29.71,WSW,256,11.0,25.0,93,0.18,,,0.30,,2013-02-20 07:01:00,
2013-02-19 23:11:00,46.0,44.0,29.71,WSW,256,11.0,25.0,93,0.18,,,0.30,,2013-02-20 07:11:00,
2013-02-19 23:21:00,46.0,44.0,29.70,West,265,4.0,8.0,93,0.20,,,0.32,,2013-02-20 07:21:00,
2013-02-19 23:31:00,45.0,43.0,29.68,WSW,248,5.0,8.0,93,0.16,,,0.33,,2013-02-20 07:31:00,
2013-02-19 23:41:00,45.0,43.0,29.68,WSW,248,5.0,8.0,93,0.16,,,0.33,,2013-02-20 07:41:00,
2013-02-19 23:52:00,46.0,44.0,29.68,West,264,4.0,14.0,94,0.15,,,0.34,,2013-02-20 07:52:00,